Location: Utrecht
(52.0907°N, 5.1214°E)
Time: 03:38:08
(UTC+02:00)

KKS-1 - Pass Details

Date: 05 July 2022
Orbit: 634 x 649 km, 98.2° (Epoch: 15 August)

Event Time Altitude Azimuth Distance (km) Brightness Sun altitude
Rises 23:41:57 0° 16° (NNE) 2,979 ? -10.6°
Reaches altitude 10° 23:44:11 10° 19° (NNE) 2,062 ? -10.7°
Maximum altitude 23:48:40 67° 102° (ESE) 705 ? -11.0°
Enters shadow 23:52:51 12° 186° (S) 1,939 ? -11.3°
